Find Starlink 3240

NORAD ID: 49728 Int'l Des: 2021-115 Owner: SPXS Country: US Constellation: starlink operational
LEOCIRCULAR

現在のビュー

3D地球を読み込み中...

About Starlink 3240

Starlink 3240 (NORAD 49728) is a starlink constellation satellite (v1.5) launched Dec 2, 2021 by SPXS of US. It operates in LEO, CIRCULAR orbit with a mass of 290.00 kg.

Starlink 3240について

説明を読み込み中...

次回通過

Passes for default location (London). Set your location on the main map for personalized predictions.

高度履歴

Loading altitude history...

軌道要素

1 49728U 21115E 26170.97462995 .00001562 00000-0 11623-3 0 9997
2 49728 53.1614 59.8349 0001284 83.5742 276.5396 15.08826997250835
Epoch: Jun 19, 2026 • Age: 16 hours

現在のステータス

高度 541.7 km
速度 7.59 km/s
衛星直下点 -6.12°S, 85.39°W
打ち上げ日 Dec 2, 2021
運用期間 4.5 years
タイプ internet

技術仕様

分類 Payload
質量 290.00 kg
乾燥質量 270.00 kg
総質量 290.00 kg
長さ 0.20 m
直径 2.80 m
スパン 9.00 m
形状 Box + pan
製造者 SPXS
バスタイプ Starlink
フェーズステータス In Orbit
所有者/国 SPXS/US

Most Searched